CW8192 Weather Reports


Display with metric or nautical units.
time (UTC)temp
F
wind
direction
speed
MPH
gust
MPH
rain 1hr
in
rain 24hr
in
rain mn
in
humidity
%
barometer
mb
20260902152704 69 181 3.0 8.0 0.00 0.01 0.00 79 1019.9
20260902152204 69 224 3.0 7.0 0.00 0.02 0.00 81 1019.9
20260902151705 69 176 2.0 8.0 0.00 0.03 0.00 82 1019.9
20260902151205 69 168 2.0 5.0 0.00 0.11 0.00 82 1019.9
20260902150705 68 132 2.0 3.0 0.00 0.13 0.00 84 1019.8
20260902150204 68 209 2.0 10.0 0.00 0.13 0.00 82 1019.8
20260902145704 68 182 4.0 9.0 0.00 0.13 0.00 81 1019.9
20260902145204 68 208 2.0 7.0 0.00 0.14 0.00 85 1020.0
20260902144705 68 221 3.0 9.0 0.00 0.14 0.00 83 1020.0
20260902144205 67 206 2.0 6.0 0.00 0.14 0.00 81 1020.0
20260902143705 67 210 4.0 10.0 0.00 0.14 0.00 81 1020.2
20260902143204 67 237 2.0 8.0 0.00 0.14 0.00 82 1020.2
20260902142705 67 147 3.0 10.0 0.00 0.14 0.00 82 1020.2
20260902142205 67 176 3.0 9.0 0.00 0.14 0.00 82 1020.0
20260902141705 67 154 2.0 6.0 0.00 0.14 0.00 84 1019.9
20260902141205 66 220 2.0 5.0 0.00 0.14 0.00 85 1019.9
20260902140704 66 191 1.0 7.0 0.00 0.14 0.00 83 1019.9
20260902140205 66 187 1.0 5.0 0.00 0.14 0.00 82 1020.0
20260902135704 65 248 2.0 3.0 0.00 0.14 0.00 84 1020.1
20260902135205 65 230 1.0 3.0 0.00 0.14 0.00 83 1020.0
20260902134704 65 162 2.0 3.0 0.00 0.14 0.00 84 1020.1
20260902134205 65 222 1.0 3.0 0.00 0.14 0.00 83 1020.0
20260902133205 65 216 1.0 3.0 0.00 0.15 0.00 84 1019.9
20260902132704 64 249 1.0 3.0 0.00 0.15 0.00 84 1019.9
20260902132204 64 218 0.0 0.0 0.00 0.15 0.00 83 1019.9
20260902130704 64 225 0.0 0.0 0.00 0.16 0.00 85 1019.6
20260902130205 64 224 0.0 0.0 0.00 0.16 0.00 86 1019.7
20260902125205 64 224 0.0 0.0 0.00 0.16 0.00 87 1019.4
20260902124705 64 244 0.0 0.0 0.00 0.16 0.00 87 1019.5
20260902124205 64 225 0.0 0.0 0.00 0.16 0.00 88 1019.3
20260902123204 64 217 0.0 0.0 0.00 0.16 0.00 88 1019.4
20260902122704 63 222 0.0 0.0 0.00 0.16 0.00 89 1019.3
20260902122204 63 263 0.0 0.0 0.00 0.16 0.00 89 1019.4
20260902121205 63 196 0.0 0.0 0.00 0.16 0.00 90 1019.4
20260902120704 63 235 0.0 0.0 0.00 0.16 0.00 90 1019.3
20260902115205 63 218 0.0 0.0 0.00 0.16 0.00 91 1019.3
20260902114205 64 193 0.0 0.0 0.00 0.17 0.00 92 1019.3
20260902113705 64 163 0.0 0.0 0.00 0.19 0.00 92 1019.5
20260902112704 63 190 0.0 0.0 0.00 0.31 0.00 93 1019.5
20260902112205 63 168 0.0 0.0 0.00 0.32 0.00 93 1019.5
20260902111705 63 152 0.0 0.0 0.00 0.32 0.00 95 1019.6
20260902111204 63 176 0.0 0.0 0.00 0.33 0.00 96 1019.6
20260902110705 63 166 0.0 0.0 0.00 0.35 0.00 96 1019.7
20260902110204 63 190 0.0 0.0 0.00 0.37 0.00 96 1019.8
20260902105705 63 173 0.0 0.0 0.00 0.39 0.00 97 1019.8
20260902105205 63 183 0.0 0.0 0.00 0.41 0.00 96 1019.8
20260902104704 63 180 0.0 0.0 0.00 0.43 0.00 97 1019.7
20260902104204 63 57 0.0 0.0 0.00 0.51 0.00 97 1019.6
20260902103704 63 57 0.0 0.0 0.00 0.72 0.00 98 1019.5
20260902103204 63 57 0.0 0.0 0.00 0.86 0.00 97 1019.5
20260902102704 63 57 0.0 0.0 0.00 0.86 0.00 98 1019.3
20260902102204 63 57 0.0 0.0 0.00 0.87 0.00 98 1019.4
20260902101704 63 57 0.0 0.0 0.00 0.87 0.00 98 1019.4
20260902100704 63 57 0.0 0.0 0.00 0.92 0.00 98 1019.4
20260902100205 63 57 0.0 0.0 0.00 1.00 0.00 98 1019.2
20260902095705 63 57 0.0 0.0 0.00 1.04 0.00 98 1019.1
20260902095206 63 57 0.0 0.0 0.00 1.07 0.00 98 1019.1
20260902094705 63 57 0.0 0.0 0.00 1.11 0.00 98 1018.9
20260902094205 63 57 0.0 0.0 0.00 1.15 0.00 98 1018.9
20260902093705 63 57 0.0 0.0 0.00 1.18 0.00 98 1018.8
20260902093204 63 57 0.0 0.0 0.00 1.21 0.00 98 1019.0
20260902092704 63 57 0.0 0.0 0.00 1.23 0.00 98 1018.9
20260902091705 63 57 0.0 0.0 0.00 1.24 0.00 98 1018.8
20260902091204 63 57 0.0 0.0 0.00 1.25 0.00 98 1018.8
20260902090704 63 57 0.0 0.0 0.00 1.25 0.00 98 1018.7
20260902090205 63 57 0.0 0.0 0.00 1.25 0.00 98 1018.6
20260902085204 63 57 0.0 0.0 0.00 1.25 0.00 97 1018.5
20260902084704 63 67 0.0 0.0 0.00 1.25 0.00 97 1018.5
20260902084205 63 104 0.0 0.0 0.00 1.25 0.00 97 1018.4
20260902083704 63 248 0.0 0.0 0.00 1.25 0.00 97 1018.6
20260902083204 63 254 0.0 0.0 0.00 1.25 0.00 96 1018.5
20260902082704 63 254 0.0 0.0 0.00 1.25 0.00 96 1018.6
20260902081704 63 254 0.0 0.0 0.00 1.25 0.00 96 1018.6
20260902081204 63 254 0.0 0.0 0.00 1.25 0.00 97 1018.7
20260902080204 63 257 0.0 0.0 0.00 1.25 0.00 97 1018.6
20260902075705 63 180 0.0 0.0 0.00 1.25 0.00 96 1018.6
20260902075204 63 180 0.0 0.0 0.00 1.25 0.00 96 1018.5
20260902074705 63 180 0.0 0.0 0.00 1.25 0.00 96 1018.5
20260902074206 63 179 0.0 0.0 0.00 1.25 0.00 96 1018.5
20260902073705 63 121 0.0 0.0 0.00 1.25 0.00 96 1018.5
20260902073205 63 157 0.0 0.0 0.00 1.25 0.00 97 1018.4
20260902072705 63 165 0.0 0.0 0.00 1.25 0.00 97 1018.5
20260902071704 63 192 0.0 0.0 0.00 1.25 0.00 97 1018.5
20260902070204 63 150 0.0 0.0 0.00 1.25 0.00 97 1018.6
20260902065705 63 150 0.0 0.0 0.00 1.25 0.00 97 1018.7
20260902064705 63 150 0.0 0.0 0.00 1.25 0.00 97 1018.8
20260902064205 63 150 0.0 0.0 0.00 1.25 0.00 98 1018.7
20260902063705 63 150 0.0 0.0 0.00 1.25 0.00 97 1018.8
20260902063205 63 150 0.0 0.0 0.00 1.25 0.00 97 1018.8
20260902062705 63 150 0.0 0.0 0.00 1.25 0.00 97 1018.8
20260902062204 63 150 0.0 0.0 0.00 1.25 0.00 97 1018.7
20260902061704 63 150 0.0 0.0 0.00 1.25 0.00 97 1018.8
20260902061205 63 150 0.0 0.0 0.00 1.25 0.00 98 1018.8
20260902060204 63 150 0.0 0.0 0.00 1.25 0.00 98 1018.7
20260902055205 63 200 0.0 0.0 0.00 1.25 0.00 98 1018.6
20260902054704 63 200 0.0 0.0 0.00 1.25 0.00 97 1018.6
20260902054204 63 200 0.0 0.0 0.00 1.25 0.00 97 1018.7
20260902053704 63 200 0.0 0.0 0.00 1.25 0.00 97 1018.5
20260902053204 63 200 0.0 0.0 0.00 1.25 0.00 97 1018.4
20260902052704 63 200 0.0 0.0 0.00 1.25 0.00 97 1018.4
20260902052204 63 200 0.0 0.0 0.00 1.25 0.00 97 1018.2
20260902051704 63 202 0.0 0.0 0.00 1.25 0.00 97 1018.2
20260902050704 63 202 0.0 0.0 0.00 1.25 0.00 97 1018.2
20260902050205 63 202 0.0 0.0 0.00 1.25 0.00 95 1018.1
20260902045205 64 202 0.0 0.0 0.00 1.25 0.00 96 1017.9
20260902044704 64 202 0.0 0.0 0.00 1.25 0.00 95 1017.8
20260902044204 64 202 0.0 0.0 0.00 1.25 0.00 95 1017.7
20260902043704 64 200 0.0 0.0 0.00 1.25 0.00 96 1017.8
20260902042204 64 271 0.0 0.0 0.00 1.25 0.00 95 1017.7
20260902041704 64 271 0.0 0.0 0.00 1.25 0.00 96 1017.5
20260902041204 64 271 0.0 0.0 0.00 1.25 0.00 96 1017.5
20260902040704 64 271 0.0 0.0 0.00 1.25 0.00 96 1017.4
20260902040204 64 268 0.0 0.0 0.00 1.25 0.00 96 1017.3
20260902035704 64 250 0.0 0.0 0.00 1.25 1.25 96 1017.3
20260902035204 64 224 0.0 0.0 0.00 1.25 1.25 96 1017.2
20260902034704 64 157 0.0 0.0 0.00 1.25 1.25 97 1017.1
20260902034204 65 157 0.0 0.0 0.00 1.25 1.25 97 1017.0
20260902033204 65 157 0.0 0.0 0.00 1.25 1.25 97 1017.0
20260902032704 65 157 0.0 0.0 0.00 1.25 1.25 97 1017.0
20260902032204 65 157 0.0 0.0 0.00 1.25 1.25 97 1017.0
20260902031704 65 157 0.0 0.0 0.00 1.25 1.25 97 1017.1
20260902031204 65 157 0.0 0.0 0.00 1.25 1.25 97 1016.9
20260902030704 65 157 0.0 0.0 0.00 1.25 1.25 96 1017.1
20260902030204 65 157 0.0 0.0 0.00 1.25 1.25 97 1017.1
20260902024704 66 207 0.0 0.0 0.00 1.25 1.25 96 1017.3
20260902024204 66 200 0.0 0.0 0.00 1.25 1.25 96 1017.3
20260902023204 66 246 0.0 0.0 0.00 1.25 1.25 95 1017.3
20260902022704 66 228 0.0 0.0 0.00 1.25 1.25 96 1017.1
20260902022204 66 222 0.0 0.0 0.00 1.25 1.25 96 1017.2
20260902020705 67 225 0.0 0.0 0.00 1.25 1.25 96 1017.3
20260902020204 67 213 0.0 0.0 0.00 1.25 1.25 97 1017.3
20260902015705 67 117 0.0 0.0 0.00 1.25 1.25 98 1017.1
20260902015205 67 88 0.0 1.0 0.00 1.25 1.25 99 1017.1
20260902014704 67 211 0.0 0.0 0.00 1.25 1.25 99 1016.9
20260902013704 67 211 0.0 0.0 0.00 1.25 1.25 99 1016.8
20260902013204 67 211 0.0 0.0 0.00 1.25 1.25 99 1016.8
20260902012704 67 211 0.0 0.0 0.00 1.25 1.25 99 1016.7
20260902012204 67 211 0.0 0.0 0.00 1.25 1.25 99 1016.5
20260902011704 67 211 0.0 0.0 0.00 1.25 1.25 98 1016.5
20260902011204 67 211 0.0 0.0 0.00 1.25 1.25 98 1016.5
20260902010704 67 211 0.0 0.0 0.00 1.25 1.25 98 1016.4
20260902010204 67 200 0.0 0.0 0.00 1.25 1.25 98 1016.4
20260902005703 67 282 0.0 0.0 0.00 1.25 1.25 98 1016.3
20260902005204 67 282 0.0 0.0 0.00 1.25 1.25 98 1016.4
20260902004704 67 282 0.0 0.0 0.00 1.25 1.25 98 1016.4
20260902003704 67 277 0.0 0.0 0.01 1.25 1.25 97 1016.2
20260902003204 67 277 0.0 1.0 0.01 1.25 1.25 97 1016.2
20260902002204 67 260 0.0 1.0 0.01 1.25 1.25 97 1016.1
20260902001704 68 259 0.0 1.0 0.01 1.25 1.25 97 1016.0
20260902000704 68 199 1.0 3.0 0.01 1.25 1.25 97 1015.8
20260902000204 68 219 0.0 0.0 0.01 1.25 1.25 97 1015.9
20260901235704 68 238 0.0 0.0 0.01 1.25 1.25 97 1016.1
20260901235204 68 238 0.0 0.0 0.01 1.25 1.25 97 1015.8
20260901234704 68 238 0.0 0.0 0.01 1.25 1.25 97 1015.8
20260901234204 68 238 0.0 0.0 0.00 1.24 1.24 97 1015.8
20260901233204 68 238 0.0 0.0 0.00 1.24 1.24 97 1015.8
20260901232703 68 238 0.0 0.0 0.00 1.24 1.24 97 1015.7
20260901231704 69 238 0.0 0.0 0.00 1.24 1.24 97 1015.8
20260901231204 69 237 0.0 0.0 0.00 1.24 1.24 97 1015.8
20260901230203 69 173 0.0 0.0 0.00 1.24 1.24 96 1015.7
20260901225704 69 173 0.0 0.0 0.00 1.24 1.24 96 1015.6
20260901225204 69 173 0.0 0.0 0.00 1.24 1.24 96 1015.4
20260901224204 69 173 0.0 0.0 0.00 1.24 1.24 96 1015.6
20260901223205 69 134 0.0 0.0 0.00 1.24 1.24 96 1015.6
20260901222703 69 98 0.0 0.0 0.00 1.24 1.24 96 1015.7
20260901222203 69 86 0.0 0.0 0.00 1.24 1.24 96 1015.9
20260901221705 69 86 0.0 0.0 0.00 1.24 1.24 95 1015.9
20260901220705 69 86 0.0 0.0 0.00 1.24 1.24 95 1015.7
20260901220205 70 86 0.0 0.0 0.00 1.24 1.24 94 1015.7
20260901215705 70 114 0.0 0.0 0.00 1.24 1.24 94 1015.6
20260901215205 70 123 0.0 0.0 0.00 1.24 1.24 93 1015.5
20260901213705 70 294 0.0 0.0 0.00 1.24 1.24 94 1015.3
20260901213205 71 294 0.0 0.0 0.00 1.24 1.24 95 1015.3
20260901212705 71 294 0.0 0.0 0.00 1.24 1.24 95 1015.3
20260901211705 71 294 0.0 0.0 0.00 1.24 1.24 96 1015.2
20260901211205 71 294 0.0 0.0 0.00 1.24 1.24 95 1015.2
20260901210705 71 294 0.0 0.0 0.00 1.24 1.24 95 1015.2
20260901210205 71 294 0.0 0.0 0.00 1.24 1.24 95 1015.2
20260901205705 71 291 0.0 1.0 0.00 1.24 1.24 95 1015.3
20260901205205 71 282 0.0 1.0 0.00 1.24 1.24 94 1015.0
20260901204705 71 282 0.0 1.0 0.00 1.24 1.24 94 1015.1
20260901204205 72 282 1.0 3.0 0.00 1.24 1.24 94 1015.1
20260901203204 72 286 2.0 3.0 0.00 1.24 1.24 94 1015.1
20260901202705 72 284 1.0 3.0 0.00 1.24 1.24 94 1015.1
20260901201705 72 293 1.0 2.0 0.00 1.24 1.24 94 1015.0
20260901201205 72 300 1.0 2.0 0.00 1.24 1.24 93 1015.0
20260901200706 72 300 0.0 0.0 0.00 1.24 1.24 93 1014.9
20260901200206 72 300 0.0 0.0 0.00 1.24 1.24 93 1014.9
20260901195205 72 315 0.0 0.0 0.00 1.24 1.24 93 1014.9
20260901194705 72 314 0.0 0.0 0.00 1.24 1.24 94 1015.0
20260901193205 71 309 0.0 0.0 0.00 1.24 1.24 94 1014.9
20260901192705 72 309 0.0 0.0 0.00 1.24 1.24 95 1014.9
20260901191705 72 309 0.0 0.0 0.00 1.24 1.24 94 1014.8
20260901191204 72 292 0.0 0.0 0.00 1.24 1.24 93 1014.7
20260901190205 72 9 0.0 0.0 0.00 1.24 1.24 94 1014.7
20260901185705 71 131 0.0 0.0 0.00 1.24 1.24 95 1014.7
20260901185205 71 273 0.0 0.0 0.00 1.24 1.24 95 1014.7
20260901184705 71 284 0.0 0.0 0.00 1.24 1.24 94 1014.8
20260901184205 71 299 0.0 0.0 0.00 1.24 1.24 95 1014.7
20260901183705 71 291 0.0 0.0 0.00 1.24 1.24 95 1014.8
20260901182705 71 219 0.0 0.0 0.00 1.24 1.24 96 1014.7
20260901182205 71 219 0.0 0.0 0.00 1.24 1.24 95 1014.8
20260901181705 71 219 0.0 0.0 0.00 1.24 1.24 94 1014.8
20260901181205 71 140 0.0 0.0 0.00 1.24 1.24 94 1014.8
20260901180706 71 272 0.0 0.0 0.00 1.24 1.24 95 1014.9
20260901180205 71 275 0.0 0.0 0.00 1.24 1.24 95 1014.7
20260901175705 71 40 0.0 0.0 0.00 1.24 1.24 94 1014.7
20260901175205 71 77 0.0 0.0 0.00 1.24 1.24 95 1014.7
20260901174205 72 93 0.0 1.0 0.00 1.24 1.24 95 1014.7
20260901173705 72 30 1.0 3.0 0.00 1.24 1.24 96 1014.6
20260901173205 71 34 0.0 0.0 0.00 1.24 1.24 97 1014.6
20260901172705 71 287 0.0 0.0 0.00 1.24 1.24 96 1014.6
20260901171205 71 286 0.0 0.0 0.00 1.24 1.24 94 1014.6
20260901170706 71 294 0.0 0.0 0.00 1.24 1.24 94 1014.6
20260901170204 71 240 0.0 0.0 0.00 1.24 1.24 93 1014.5
20260901165704 72 171 0.0 0.0 0.00 1.24 1.24 93 1014.6
20260901165205 72 118 0.0 0.0 0.00 1.24 1.24 93 1014.6
20260901164706 72 48 0.0 0.0 0.00 1.24 1.24 93 1014.6
20260901163705 72 254 0.0 0.0 0.00 1.24 1.24 93 1014.6
20260901163205 72 234 0.0 3.0 0.00 1.24 1.24 93 1014.7
20260901162704 72 137 0.0 1.0 0.00 1.24 1.24 94 1014.8
20260901162205 71 110 0.0 2.0 0.01 1.24 1.24 94 1014.8
20260901161706 71 327 0.0 0.0 0.02 1.24 1.24 94 1014.7
20260901161205 71 327 0.0 0.0 0.10 1.24 1.24 96 1014.8
20260901160704 70 327 0.0 0.0 0.12 1.24 1.24 95 1014.8
20260901160206 70 327 0.0 0.0 0.12 1.24 1.24 93 1014.7
20260901154705 69 219 0.0 1.0 0.13 1.24 1.24 98 1014.5
20260901154205 68 228 0.0 2.0 0.13 1.24 1.24 97 1014.4
20260901153705 68 221 1.0 2.0 0.13 1.24 1.24 97 1014.5
20260901153205 68 221 1.0 3.0 0.13 1.24 1.24 98 1014.2